International Skating Union - Official Site

ISU World Junior Speed Skating Championships 2017
February 17-19, 2017

Draw | Lap Times | Index | Classification

Referee: Roar  Eriksen  (NOR)
Starter: Stefan  HERRMANN  (GER)
StartTime: EndTime: Air Temp: Ice Temp: Humidity:
13:23 14:40 5.2℃ -4.9℃ 65%
Result 3000m Ladies
Rankings as of Feb 19 2017 1:32PM
Rank: No.: Name: Nation: Time: Behind: Points:
1 134 Joy  Beune NED NED 4:35.90200m - 20.83 - (20.8)
600m - 55.26 - (34.4)
1000m - 1:30.22 - (34.9)
1400m - 2:06.01 - (35.7)
1800m - 2:42.50 - (36.4)
2200m - 3:19.31 - (36.8)
2600m - 3:56.74 - (37.4)
3000m - 4:35.90 - (39.1)
45.983
2 136 Sanne  In 't Hof NED NED 4:37.14200m - 20.90 - (20.8)
600m - 55.59 - (34.6)
1000m - 1:31.57 - (35.9)
1400m - 2:07.73 - (36.1)
1800m - 2:44.06 - (36.3)
2200m - 3:20.78 - (36.7)
2600m - 3:58.51 - (37.7)
3000m - 4:37.14 - (38.6)
1.24 46.190
3 137 Jutta  Leerdam NED NED 4:38.27200m - 20.08 - (20.0)
600m - 53.14 - (33.0)
1000m - 1:28.10 - (34.9)
1400m - 2:04.75 - (36.6)
1800m - 2:42.15 - (37.4)
2200m - 3:19.90 - (37.7)
2600m - 3:58.50 - (38.5)
3000m - 4:38.27 - (39.7)
2.37 46.378
4 127 Yuna  Yoshimura JPN JPN 4:41.40200m - 21.55 - (21.5)
600m - 56.50 - (34.9)
1000m - 1:32.12 - (35.6)
1400m - 2:08.60 - (36.4)
1800m - 2:45.58 - (36.9)
2200m - 3:23.51 - (37.9)
2600m - 4:02.59 - (39.0)
3000m - 4:41.40 - (38.7)
5.50 46.900
5 141 Ragne  Wiklund NOR NOR 4:42.04200m - 22.00 - (22.0)
600m - 56.70 - (34.7)
1000m - 1:32.37 - (35.6)
1400m - 2:08.92 - (36.5)
1800m - 2:46.82 - (37.9)
2200m - 3:24.71 - (37.8)
2600m - 4:03.40 - (38.6)
3000m - 4:42.04 - (38.6)
6.14 47.006
6 101 Viola   Feichtner AUT AUT 4:42.47200m - 21.82 - (21.8)
600m - 56.98 - (35.1)
1000m - 1:32.63 - (35.6)
1400m - 2:09.43 - (36.8)
1800m - 2:47.09 - (37.6)
2200m - 3:25.28 - (38.1)
2600m - 4:03.75 - (38.4)
3000m - 4:42.47 - (38.7)
6.57 47.078
7 142 Karolina  Bosiek POL POL 4:43.89200m - 21.50 - (21.5)
600m - 55.19 - (33.6)
1000m - 1:30.82 - (35.6)
1400m - 2:08.19 - (37.3)
1800m - 2:46.27 - (38.0)
2200m - 3:25.21 - (38.9)
2600m - 4:04.66 - (39.4)
3000m - 4:43.89 - (39.2)
7.99 47.315
8 109 Béatrice  Lamarche CAN CAN 4:47.52200m - 22.17 - (22.1)
600m - 58.14 - (35.9)
1000m - 1:35.93 - (37.7)
1400m - 2:13.94 - (38.0)
1800m - 2:52.47 - (38.5)
2200m - 3:30.38 - (37.9)
2600m - 4:08.73 - (38.3)
3000m - 4:47.52 - (38.7)
11.62 47.920
9 114 Dongxue  Xi CHN CHN 4:51.26200m - 22.86 - (22.8)
600m - 59.29 - (36.4)
1000m - 1:37.20 - (37.9)
1400m - 2:15.14 - (37.9)
1800m - 2:53.21 - (38.0)
2200m - 3:31.52 - (38.3)
2600m - 4:10.89 - (39.3)
3000m - 4:51.26 - (40.3)
15.36 48.543
10 113 Nan  Sun CHN CHN 4:52.01200m - 21.19 - (21.1)
600m - 56.85 - (35.6)
1000m - 1:33.69 - (36.8)
1400m - 2:11.11 - (37.4)
1800m - 2:50.57 - (39.4)
2200m - 3:31.41 - (40.8)
2600m - 4:11.93 - (40.5)
3000m - 4:52.01 - (40.0)
16.11 48.668
11 124 Seia  Kawamura JPN JPN 4:53.41200m - 21.31 - (21.3)
600m - 55.89 - (34.5)
1000m - 1:33.07 - (37.1)
1400m - 2:11.96 - (38.8)
1800m - 2:52.28 - (40.3)
2200m - 3:32.74 - (40.4)
2600m - 4:13.32 - (40.5)
3000m - 4:53.41 - (40.0)
17.51 48.901
12 120 Noemi  Bonazza ITA ITA 4:53.86200m - 20.73 - (20.7)
600m - 55.16 - (34.4)
1000m - 1:32.26 - (37.1)
1400m - 2:10.48 - (38.2)
1800m - 2:49.66 - (39.1)
2200m - 3:29.38 - (39.7)
2600m - 4:10.99 - (41.6)
3000m - 4:53.86 - (42.8)
17.96 48.976
13 143 Karolina   Gasecka POL POL 4:54.07200m - 21.80 - (21.8)
600m - 57.93 - (36.1)
1000m - 1:36.18 - (38.2)
1400m - 2:15.39 - (39.2)
1800m - 2:55.16 - (39.7)
2200m - 3:34.83 - (39.6)
2600m - 4:14.96 - (40.1)
3000m - 4:54.07 - (39.0)
18.17 49.011
14 115 Sining  Yang CHN CHN 4:54.62200m - 21.05 - (21.0)
600m - 56.34 - (35.2)
1000m - 1:34.28 - (37.9)
1400m - 2:14.55 - (40.2)
1800m - 2:54.91 - (40.3)
2200m - 3:36.36 - (41.4)
2600m - 4:16.23 - (39.8)
3000m - 4:54.62 - (38.3)
18.72 49.103
15 122 Deborah  Grisenti ITA ITA 4:55.24200m - 21.25 - (21.2)
600m - 56.56 - (35.3)
1000m - 1:33.51 - (36.9)
1400m - 2:12.12 - (38.6)
1800m - 2:51.83 - (39.7)
2200m - 3:32.66 - (40.8)
2600m - 4:13.92 - (41.2)
3000m - 4:55.24 - (41.3)
19.34 49.206
16 125 Moe  Kitahara JPN JPN 4:55.43200m - 21.36 - (21.3)
600m - 56.90 - (35.5)
1000m - 1:33.86 - (36.9)
1400m - 2:12.91 - (39.0)
1800m - 2:53.92 - (41.0)
2200m - 3:34.39 - (40.4)
2600m - 4:14.94 - (40.5)
3000m - 4:55.43 - (40.4)
19.53 49.238
17 154 Hannah  Bosman USA USA 4:55.48200m - 21.84 - (21.8)
600m - 58.02 - (36.1)
1000m - 1:36.64 - (38.6)
1400m - 2:16.16 - (39.5)
1800m - 2:55.99 - (39.8)
2200m - 3:36.19 - (40.1)
2600m - 4:16.48 - (40.2)
3000m - 4:55.48 - (38.9)
19.58 49.246
18 107 Véronique  Déry CAN CAN 4:56.00200m - 22.30 - (22.3)
600m - 59.05 - (36.7)
1000m - 1:38.07 - (39.0)
1400m - 2:16.69 - (38.6)
1800m - 2:56.18 - (39.4)
2200m - 3:35.89 - (39.7)
2600m - 4:15.43 - (39.5)
3000m - 4:56.00 - (40.5)
20.10 49.333
19 133 Chae Lin  Um KOR KOR 4:56.15200m - 22.69 - (22.6)
600m - 59.35 - (36.6)
1000m - 1:37.71 - (38.3)
1400m - 2:16.64 - (38.9)
1800m - 2:55.77 - (39.1)
2200m - 3:36.28 - (40.5)
2600m - 4:16.81 - (40.5)
3000m - 4:56.15 - (39.3)
20.25 49.358
20 123 Kanako  Iijima JPN JPN 4:56.88200m - 22.18 - (22.1)
600m - 57.75 - (35.5)
1000m - 1:34.40 - (36.6)
1400m - 2:12.50 - (38.0)
1800m - 2:52.30 - (39.8)
2200m - 3:32.93 - (40.6)
2600m - 4:14.94 - (42.0)
3000m - 4:56.88 - (41.9)
20.98 49.480
21 151 Veronika  Suslova RUS RUS 4:58.16200m - 22.56 - (22.5)
600m - 59.85 - (37.2)
1000m - 1:37.42 - (37.5)
1400m - 2:15.24 - (37.8)
1800m - 2:55.23 - (39.9)
2200m - 3:36.13 - (40.9)
2600m - 4:17.37 - (41.2)
3000m - 4:58.16 - (40.7)
22.26 49.693
22 102 Viktoria  Schinnerl AUT AUT 4:58.52200m - 23.20 - (23.1)
600m - 1:01.66 - (38.4)
1000m - 1:40.74 - (39.0)
1400m - 2:19.50 - (38.7)
1800m - 2:58.00 - (38.5)
2200m - 3:36.68 - (38.6)
2600m - 4:16.82 - (40.1)
3000m - 4:58.52 - (41.6)
22.62 49.753
23 111 Weiping  Gan CHN CHN 4:59.69200m - 22.12 - (22.1)
600m - 56.81 - (34.6)
1000m - 1:33.06 - (36.2)
1400m - 2:12.33 - (39.2)
1800m - 2:54.79 - (42.4)
2200m - 3:37.01 - (42.2)
2600m - 4:19.02 - (42.0)
3000m - 4:59.69 - (40.6)
23.79 49.948
24 116 Natálie  Kerschbaummayr CZE CZE 5:00.95200m - 22.65 - (22.6)
600m - 59.49 - (36.8)
1000m - 1:36.84 - (37.3)
1400m - 2:16.08 - (39.2)
1800m - 2:57.48 - (41.3)
2200m - 3:39.37 - (41.8)
2600m - 4:20.60 - (41.2)
3000m - 5:00.95 - (40.3)
25.05 50.158
25 144 Natalia  Jabrzyk POL POL 5:03.70200m - 22.61 - (22.6)
600m - 1:00.44 - (37.8)
1000m - 1:38.75 - (38.3)
1400m - 2:18.59 - (39.8)
1800m - 2:59.35 - (40.7)
2200m - 3:41.23 - (41.8)
2600m - 4:22.85 - (41.6)
3000m - 5:03.71 - (40.8)
27.81 50.618
26 119 Tabea  Theurich GER GER 5:04.30200m - 21.79 - (21.7)
600m - 58.35 - (36.5)
1000m - 1:36.52 - (38.1)
1400m - 2:15.84 - (39.3)
1800m - 2:57.68 - (41.8)
2200m - 3:39.47 - (41.7)
2600m - 4:21.91 - (42.4)
3000m - 5:04.30 - (42.3)
28.40 50.716
27 147 Karina  Akhmetova RUS RUS 5:05.39200m - 21.18 - (21.1)
600m - 56.50 - (35.3)
1000m - 1:35.55 - (39.0)
1400m - 2:16.23 - (40.6)
1800m - 2:57.58 - (41.3)
2200m - 3:39.40 - (41.8)
2600m - 4:22.48 - (43.0)
3000m - 5:05.39 - (42.8)
29.49 50.898
28 118 Lea-Sophie  Scholz GER GER 5:05.50200m - 21.83 - (21.8)
600m - 59.06 - (37.2)
1000m - 1:37.77 - (38.7)
1400m - 2:17.65 - (39.8)
1800m - 2:59.52 - (41.8)
2200m - 3:42.21 - (42.6)
2600m - 4:24.66 - (42.4)
3000m - 5:05.50 - (40.8)
29.60 50.916
29 153 Franchesca  Bell USA USA 5:06.50200m - 22.68 - (22.6)
600m - 59.07 - (36.3)
1000m - 1:37.24 - (38.1)
1400m - 2:16.72 - (39.4)
1800m - 2:58.93 - (42.2)
2200m - 3:41.96 - (43.0)
2600m - 4:24.00 - (42.0)
3000m - 5:06.50 - (42.4)
30.60 51.083
30 108 Carolane  Gingras CAN CAN 5:07.00200m - 22.66 - (22.6)
600m - 59.36 - (36.7)
1000m - 1:38.45 - (39.0)
1400m - 2:18.71 - (40.2)
1800m - 3:00.42 - (41.7)
2200m - 3:43.53 - (43.1)
2600m - 4:24.97 - (41.4)
3000m - 5:06.97 - (42.0)
31.10 51.166
31 145 Olga   Kaczmarek POL POL 5:10.22200m - 22.62 - (22.6)
600m - 58.56 - (35.9)
1000m - 1:36.93 - (38.3)
1400m - 2:17.94 - (41.0)
1800m - 2:59.52 - (41.5)
2200m - 3:42.51 - (42.9)
2600m - 4:25.66 - (43.1)
3000m - 5:10.22 - (44.5)
34.32 51.703
32 156 Esther  Munoz USA USA 5:10.28200m - 21.84 - (21.8)
600m - 57.26 - (35.4)
1000m - 1:34.57 - (37.3)
1400m - 2:14.48 - (39.9)
1800m - 2:56.84 - (42.3)
2200m - 3:40.48 - (43.6)
2600m - 4:25.87 - (45.3)
3000m - 5:10.26 - (44.3)
34.38 51.713
33 117 Anni   Käsnänen FIN FIN 5:17.22200m - 23.25 - (23.2)
600m - 59.87 - (36.6)
1000m - 1:37.84 - (37.9)
1400m - 2:18.77 - (40.9)
1800m - 3:01.70 - (42.9)
2200m - 3:45.50 - (43.8)
2600m - 4:31.93 - (46.4)
3000m - 5:17.20 - (45.2)
41.32 52.870
34 103 Anna  Kovaleva BLR BLR 5:18.35200m - 22.58 - (22.5)
600m - 57.91 - (35.3)
1000m - 1:34.81 - (36.9)
1400m - 2:13.54 - (38.7)
1800m - 3:08.09 - (54.5)
2200m - 3:52.03 - (43.9)
2600m - 4:35.44 - (43.4)
3000m - 5:18.34 - (42.8)
42.45 53.058
35 157 Samantha  Snyder USA USA 5:18.47200m - 23.05 - (23.0)
600m - 1:02.62 - (39.5)
1000m - 1:43.28 - (40.6)
1400m - 2:25.80 - (42.5)
1800m - 3:08.37 - (42.5)
2200m - 3:51.84 - (43.4)
2600m - 4:34.90 - (43.0)
3000m - 5:18.47 - (43.5)
42.57 53.078
36 131 Miryeong  Jeon KOR KOR DNS -